Tracking 18844 objects as of 21-Nov-2017
HD Live streaming from Space Station
objects crossing your sky now

FENGYUN 1C DEB

Track FENGYUN 1C DEB now!
10-day predictions


NORAD ID: 36661
Int'l Code: 1999-025DYF
Perigee: 819.4 km
Apogee: 853.4 km
Inclination: 99.0 °
Period: 101.5 minutes
Semi major axis: 7207 km
RCS: 0.0121 m2 (small)
Launch date: May 10, 1999
Source: People's Republic of China (PRC)
Launch site: Taiyaun Space Center, China (TSC)

Note: This is SATELLITE DEBRIS
aabbcc
Your satellite tracking list
Your tracking list is empty




NASA's NSSDC Master Catalog

Two Line Element Set (TLE):
1 36661U 99025DYF 17315.29116295  .00001279  00000-0  63501-3 0  9996
2 36661  99.0072 340.5154 0023589 155.4671 264.7031 14.18848133461712
Source of the keplerian elements: AFSPC